NAVSTAR 71 (USA 256)    
1 40105U 14045A   19260.07774367  .00000017  00000-0  00000+0 0  9990
2 40105  54.5775 186.9134 0011797  97.1489 262.9984  2.00572222 37529
ATLAS 5 CENTAUR R/B     
1 40106U 14045B   19260.68479138  .00000024  00000-0  00000-0 0  9995
2 40106  54.8252 194.1755 0185054 326.0132  32.8147  1.90830988 35741